QPF
0.00 0.00 0.00 0.00 0.00 0.00 0.00 0.00 0.00 0.00 0.00 0.00 0.00 0.00 0.00 0.00 0.00 0.00 0.00 0.00 0.00 0.00 0.01 0.01 0.03 0.12 0.12 0.20 0.30 0.30 0.25 0.13
0.00 0.00 0.00 0.00 0.00 0.00 0.00 0.00 0.00 0.00 0.00 0.00 0.00 0.00 0.00 0.00 0.00 0.00 0.00 0.00 0.00 0.01 0.01 0.03 0.10 0.12 0.09 0.09 0.20 0.30 0.21 0.12
0.00 0.00 0.00 0.00 0.00 0.00 0.00 0.00 0.00 0.00 0.00 0.00 0.00 0.00 0.00 0.00 0.00 0.00 0.00 0.00 0.01 0.01 0.01 0.04 0.11 0.14 0.14 0.07 0.09 0.17 0.12 0.03
0.00 0.00 0.00 0.00 0.00 0.00 0.00 0.00 0.00 0.00 0.00 0.00 0.00 0.00 0.00 0.00 0.00 0.00 0.00 0.01 0.00 0.01 0.01 0.03 0.09 0.09 0.06 0.14 0.13 0.11 0.08 0.03
0.00 0.00 0.00 0.00 0.00 0.00 0.00 0.00 0.00 0.00 0.00 0.00 0.00 0.00 0.00 0.00 0.00 0.00 0.00 0.00 0.01 0.00 0.01 0.02 0.07 0.08 0.06 0.11 0.20 0.19 0.11 0.09
0.00 0.00 0.00 0.00 0.00 0.00 0.00 0.00 0.00 0.00 0.00 0.00 0.00 0.00 0.00 0.00 0.00 0.00 0.00 0.01 0.01 0.01 0.00 0.01 0.06 0.04 0.02 0.06 0.15 0.18 0.16 0.11
0.00 0.00 0.00 0.00 0.00 0.00 0.00 0.00 0.00 0.00 0.00 0.00 0.00 0.00 0.00 0.00 0.00 0.00 0.00 0.01 0.01 0.01 0.01 0.04 0.04 0.03 0.01 0.02 0.07 0.11 0.14 0.10
0.00 0.00 0.00 0.00 0.00 0.00 0.00 0.00 0.00 0.00 0.00 0.00 0.00 0.00 0.00 0.00 0.00 0.00 0.00 0.00 0.00 0.02 0.00 0.02 0.03 0.02 0.01 0.00 0.02 0.08 0.08 0.06
0.00 0.00 0.00 0.00 0.00 0.00 0.00 0.00 0.00 0.00 0.00 0.00 0.00 0.00 0.00 0.00 0.00 0.00 0.00 0.00 0.00 0.00 0.00 0.00 0.00 0.00 0.02 0.03 0.02 0.04 0.04 0.03
0.00 0.00 0.00 0.00 0.00 0.00 0.00 0.00 0.00 0.00 0.00 0.00 0.00 0.00 0.00 0.00 0.00 0.00 0.00 0.00 0.00 0.00 0.01 0.00 0.01 0.01 0.02 0.04 0.04 0.03 0.02 0.01
0.00 0.00 0.00 0.00 0.00 0.00 0.00 0.00 0.00 0.00 0.00 0.00 0.00 0.00 0.00 0.00 0.00 0.00 0.00 0.00 0.00 0.01 0.01 0.00 0.00 0.01 0.01 0.03 0.06 0.07 0.06 0.05
0.00 0.00 0.00 0.00 0.00 0.00 0.00 0.00 0.00 0.00 0.00 0.00 0.00 0.00 0.00 0.00 0.00 0.00 0.00 0.00 0.00 0.00 0.01 0.00 0.00 0.01 0.02 0.02 0.06 0.06 0.04 0.02
0.00 0.00 0.00 0.00 0.00 0.00 0.00 0.00 0.00 0.00 0.00 0.00 0.00 0.00 0.00 0.00 0.00 0.00 0.00 0.00 0.00 0.00 0.00 0.00 0.00 0.01 0.03 0.04 0.05 0.09 0.05 0.02
0.00 0.00 0.00 0.01 0.02 0.02 0.01 0.01 0.00 0.00 0.00 0.00 0.00 0.00 0.00 0.00 0.00 0.00 0.00 0.00 0.00 0.00 0.00 0.00 0.00 0.01 0.00 0.01 0.02 0.04 0.06 0.03
0.00 0.01 0.01 0.03 0.07 0.10 0.05 0.01 0.01 0.00 0.01 0.03 0.04 0.04 0.00 0.00 0.00 0.00 0.00 0.00 0.00 0.00 0.00 0.00 0.00 0.00 0.00 0.00 0.00 0.00 0.01 0.01
0.01 0.08 0.08 0.07 0.07 0.09 0.09 0.04 0.01 0.04 0.09 0.08 0.07 0.02 0.00 0.00 0.00 0.00 0.00 0.00 0.00 0.00 0.00 0.00 0.00 0.00 0.00 0.00 0.00 0.00 0.00 0.00
0.02 0.22 0.59 0.30 0.09 0.08 0.08 0.09 0.04 0.07 0.10 0.08 0.05 0.01 0.00 0.00 0.00 0.00 0.00 0.00 0.00 0.00 0.00 0.00 0.00 0.00 0.00 0.00 0.00 0.00 0.00 0.00
0.03 0.12 0.53 0.59 0.21 0.10 0.06 0.08 0.07 0.09 0.10 0.07 0.04 0.00 0.00 0.00 0.00 0.00 0.00 0.00 0.00 0.00 0.00 0.00 0.00 0.00 0.00 0.00 0.00 0.01 0.01 0.00
0.04 0.09 0.25 0.51 0.38 0.19 0.13 0.11 0.16 0.12 0.10 0.05 0.03 0.00 0.00 0.00 0.00 0.00 0.00 0.00 0.00 0.00 0.00 0.00 0.00 0.00 0.00 0.00 0.00 0.00 0.01 0.00
MSLP
1001.57 1001.80 1002.59 1002.67 1002.82 1003.14 1003.44 1003.98 1005.03 1005.82 1006.58 1007.43 1008.25 1008.74 1009.20 1009.41 1009.78 1009.96 1010.62 1011.17 1011.54 1011.82 1012.26 1012.95 1013.58 1014.37 1014.88 1015.25 1015.79 1016.12 1015.81 1017.03
1001.45 1002.50 1002.70 1002.81 1002.88 1003.02 1003.16 1003.37 1004.18 1005.12 1006.10 1006.77 1007.37 1007.67 1008.55 1009.08 1009.46 1009.68 1009.98 1010.60 1010.99 1011.50 1012.13 1012.69 1013.39 1014.03 1014.41 1014.97 1015.85 1015.93 1016.26 1017.16
1001.74 1002.30 1002.66 1002.86 1002.80 1002.81 1002.90 1003.06 1003.68 1004.23 1005.62 1006.28 1006.76 1007.31 1008.12 1008.68 1009.10 1009.39 1009.77 1010.15 1010.69 1011.27 1011.89 1012.44 1013.09 1013.79 1014.07 1014.80 1015.23 1015.66 1016.58 1017.13
1001.63 1002.16 1002.45 1002.62 1002.48 1002.47 1002.57 1002.70 1002.98 1003.60 1004.41 1005.89 1006.39 1007.00 1007.75 1008.26 1008.59 1009.05 1009.44 1009.67 1010.36 1010.83 1011.46 1012.06 1012.64 1013.29 1013.88 1014.19 1014.63 1015.16 1015.76 1016.86
1001.68 1001.93 1002.10 1002.22 1002.09 1002.02 1002.16 1002.38 1002.62 1003.22 1003.75 1004.74 1005.19 1005.38 1006.19 1006.90 1007.67 1008.45 1009.06 1009.36 1009.93 1010.32 1010.86 1011.62 1012.18 1012.61 1013.46 1013.86 1014.20 1014.74 1015.03 1015.97
1001.78 1001.96 1001.89 1001.73 1001.70 1001.91 1001.99 1002.24 1002.48 1003.22 1003.26 1004.13 1004.72 1004.66 1005.16 1005.80 1006.58 1007.39 1008.62 1009.03 1009.51 1009.82 1010.57 1011.25 1011.84 1012.37 1012.96 1013.52 1014.08 1014.60 1014.85 1015.41
1001.66 1001.68 1001.59 1001.31 1001.36 1001.47 1001.75 1002.01 1002.23 1003.20 1003.55 1003.77 1004.04 1003.88 1004.23 1005.20 1006.27 1007.14 1008.06 1008.63 1008.99 1009.51 1010.15 1010.80 1011.44 1011.93 1012.41 1012.91 1013.58 1014.00 1014.68 1015.39
1001.72 1001.49 1001.24 1001.32 1001.32 1001.14 1001.12 1001.64 1001.98 1002.84 1003.47 1003.69 1003.61 1003.68 1004.26 1004.71 1005.37 1006.29 1007.36 1008.02 1008.37 1008.97 1009.84 1010.34 1010.97 1011.54 1012.01 1012.61 1013.19 1013.55 1014.39 1015.00
1001.56 1001.45 1001.23 1001.16 1001.13 1000.98 1000.76 1001.01 1001.70 1002.52 1003.19 1003.49 1003.47 1003.86 1003.86 1004.49 1005.06 1005.73 1006.71 1007.24 1007.50 1008.66 1009.28 1009.85 1010.55 1011.17 1011.80 1012.33 1012.95 1013.60 1013.82 1014.32
1001.49 1001.50 1001.33 1001.24 1001.23 1000.96 1000.50 1000.64 1001.18 1001.92 1002.67 1003.34 1003.56 1003.90 1003.60 1004.05 1004.96 1005.56 1006.23 1006.61 1007.29 1008.10 1008.91 1009.55 1010.19 1010.75 1011.33 1012.01 1012.42 1013.05 1013.50 1014.04
1001.70 1001.85 1001.90 1001.70 1001.24 1000.75 1000.12 999.98 1000.72 1001.34 1002.19 1002.89 1003.51 1003.52 1003.55 1003.96 1004.87 1005.97 1006.32 1006.70 1007.17 1007.79 1008.40 1009.09 1009.82 1010.39 1011.03 1011.64 1012.28 1012.86 1013.06 1013.58
1002.06 1002.42 1002.53 1002.19 1001.26 1000.29 998.77 999.47 1000.11 1000.85 1001.63 1002.36 1003.07 1003.16 1003.39 1003.99 1004.86 1005.90 1006.23 1006.32 1006.92 1007.47 1007.91 1008.70 1009.31 1009.98 1010.58 1011.21 1011.97 1012.49 1012.81 1013.47
1002.60 1003.04 1003.22 1002.73 1001.51 1000.78 998.99 999.51 999.96 1000.44 1001.30 1001.90 1002.43 1003.09 1003.23 1004.06 1004.82 1005.55 1005.91 1006.26 1006.81 1007.30 1007.83 1008.59 1009.23 1009.62 1010.19 1010.72 1011.33 1011.76 1012.47 1012.96
1003.38 1003.51 1003.57 1003.41 1001.95 1001.44 1000.06 999.89 1000.09 1000.65 1001.12 1001.57 1002.22 1003.08 1003.27 1004.07 1004.64 1005.02 1005.72 1006.08 1006.61 1007.28 1007.62 1008.24 1008.89 1009.37 1009.99 1010.49 1010.97 1011.52 1011.99 1012.56
1004.98 1004.79 1004.27 1004.27 1002.47 1002.62 1001.65 1000.04 1000.24 1000.68 1001.12 1001.56 1002.21 1003.09 1003.48 1003.98 1004.37 1004.76 1005.53 1005.99 1006.72 1007.25 1007.57 1007.89 1008.55 1009.21 1009.81 1010.36 1010.93 1011.48 1011.98 1012.42
1006.02 1005.79 1005.40 1005.12 1003.19 1003.34 1002.14 1000.43 1000.50 1000.67 1001.22 1001.79 1002.31 1003.18 1003.64 1003.77 1004.01 1004.54 1005.27 1005.78 1006.47 1007.01 1007.51 1007.90 1008.55 1008.99 1009.51 1010.12 1010.67 1011.19 1011.74 1012.18
1007.18 1006.82 1006.66 1006.56 1004.48 1004.55 1003.33 1001.28 1000.79 1000.92 1001.37 1001.76 1002.51 1003.26 1003.68 1003.81 1003.88 1004.45 1005.13 1005.68 1006.11 1006.74 1007.49 1007.88 1008.38 1008.86 1009.37 1009.90 1010.37 1010.83 1011.31 1011.74
1008.23 1008.26 1007.85 1007.05 1006.51 1005.89 1004.51 1002.47 1001.02 1000.91 1001.30 1001.91 1002.71 1003.13 1003.60 1003.82 1003.96 1004.42 1004.89 1005.42 1005.88 1006.43 1006.87 1007.51 1008.14 1008.74 1009.28 1009.80 1010.23 1010.53 1010.94 1011.28
1009.47 1009.33 1008.97 1007.79 1007.62 1006.80 1005.66 1002.34 1001.31 1001.64 1002.16 1002.56 1002.96 1003.27 1003.47 1003.68 1004.08 1004.45 1004.79 1005.21 1005.74 1006.25 1006.75 1007.26 1007.83 1008.38 1008.94 1009.60 1010.10 1010.35 1010.71 1011.05
Thickness
5715 5713 5709 5713 5716 5717 5718 5716 5708 5700 5695 5689 5681 5676 5672 5668 5664 5661 5654 5648 5644 5641 5636 5629 5622 5613 5608 5605 5600 5599 5606 5599
5704 5698 5701 5703 5705 5707 5709 5711 5707 5698 5689 5684 5680 5676 5670 5665 5661 5657 5653 5647 5642 5637 5631 5625 5618 5612 5608 5602 5596 5597 5597 5593
5691 5691 5690 5690 5694 5698 5701 5704 5701 5699 5686 5681 5678 5674 5667 5662 5658 5655 5650 5645 5639 5634 5627 5620 5614 5607 5605 5601 5597 5595 5591 5590
5682 5680 5681 5684 5688 5691 5694 5696 5697 5695 5690 5677 5674 5670 5663 5658 5655 5651 5647 5644 5636 5631 5624 5618 5612 5607 5603 5601 5598 5594 5592 5587
5673 5672 5674 5677 5683 5689 5689 5691 5692 5689 5686 5677 5676 5674 5665 5662 5656 5650 5644 5641 5635 5629 5623 5617 5610 5607 5600 5598 5596 5591 5591 5588
5660 5661 5667 5674 5678 5679 5681 5682 5684 5679 5681 5674 5672 5672 5670 5665 5659 5651 5641 5637 5632 5628 5619 5613 5608 5603 5600 5596 5591 5587 5587 5587
5653 5657 5662 5668 5673 5674 5675 5674 5675 5670 5669 5669 5670 5671 5669 5661 5653 5645 5638 5634 5630 5624 5616 5610 5604 5601 5599 5596 5591 5588 5583 5581
5640 5646 5653 5657 5661 5666 5670 5667 5667 5664 5660 5661 5666 5665 5660 5658 5654 5647 5637 5632 5628 5622 5611 5605 5601 5598 5597 5594 5591 5590 5582 5580
5632 5637 5643 5649 5654 5658 5663 5663 5661 5658 5654 5654 5658 5655 5656 5652 5650 5645 5637 5633 5630 5618 5608 5602 5598 5597 5594 5591 5589 5585 5585 5584
5625 5628 5633 5639 5643 5647 5655 5658 5657 5655 5650 5646 5647 5645 5650 5648 5644 5640 5636 5633 5626 5617 5606 5601 5597 5594 5593 5589 5588 5585 5583 5580
5615 5616 5618 5624 5633 5640 5649 5654 5650 5650 5645 5641 5638 5640 5643 5644 5639 5630 5629 5626 5622 5614 5608 5601 5596 5592 5589 5586 5583 5581 5584 5580
5602 5602 5604 5609 5622 5629 5649 5645 5644 5642 5639 5636 5633 5635 5637 5637 5632 5626 5624 5625 5620 5613 5609 5602 5596 5591 5587 5582 5579 5577 5578 5576
5591 5588 5588 5595 5605 5607 5635 5631 5632 5634 5631 5631 5631 5628 5632 5629 5626 5623 5622 5621 5616 5611 5606 5598 5592 5589 5586 5581 5577 5577 5573 5574
5576 5576 5576 5576 5587 5591 5611 5615 5617 5618 5621 5624 5623 5621 5626 5621 5622 5622 5619 5617 5613 5607 5604 5599 5593 5589 5583 5580 5576 5572 5572 5570
5553 5556 5562 5556 5569 5567 5579 5603 5607 5607 5609 5615 5617 5613 5615 5615 5617 5618 5614 5612 5606 5602 5600 5598 5593 5589 5584 5580 5574 5569 5567 5565
5536 5536 5538 5539 5553 5552 5563 5592 5596 5601 5604 5606 5606 5604 5605 5611 5614 5612 5610 5607 5603 5598 5595 5593 5588 5586 5583 5579 5574 5571 5567 5566
5519 5514 5517 5518 5532 5537 5547 5579 5587 5591 5596 5599 5596 5595 5600 5604 5608 5606 5604 5601 5600 5596 5590 5588 5585 5583 5578 5575 5573 5570 5568 5566
5498 5494 5499 5505 5513 5522 5535 5560 5584 5588 5591 5591 5589 5594 5594 5596 5600 5601 5599 5597 5596 5593 5592 5589 5585 5582 5576 5573 5570 5572 5569 5567
5484 5482 5484 5493 5498 5511 5523 5559 5577 5578 5578 5582 5584 5586 5590 5593 5594 5594 5594 5594 5592 5590 5588 5585 5584 5581 5575 5571 5568 5570 5566 5564